This is the latest recevied weather packets stored in our database for station/object AL7BX-WX. If no packets are shown the sender has not sent any weather packets the latest 10 day(s).
| Time | Temp. | Humidity | Pressure | Rain* | Wind** | Luminosity | Snow |
|---|---|---|---|---|---|---|---|
| 1778117223 | 16.11° C | 27% | 0 hPa | 0 mm | - | - | - |
| 1778116683 | 16.11° C | 28% | 0 hPa | 0 mm | - | - | - |
| 1778112003 | 17.22° C | 26% | 0 hPa | 0 mm | - | - | - |
| 1778111643 | 17.78° C | 27% | 0 hPa | 0 mm | - | - | - |
| 1778109483 | 17.78° C | 25% | 0 hPa | 0 mm | - | - | - |
| 1778106963 | 17.78° C | 29% | 0 hPa | 0 mm | - | - | - |
| 1778103903 | 17.22° C | 31% | 0 hPa | 0 mm | - | - | - |
| 1778101874 | 17.22° C | 34% | 0 hPa | 0 mm | - | - | - |
| 1778099763 | 16.67° C | 35% | 0 hPa | 0 mm | - | - | - |
| 1778098143 | 16.67° C | 40% | 0 hPa | 0 mm | - | - | - |
| 1778092563 | 15.56° C | 46% | 0 hPa | 0 mm | - | - | - |
| 1778088963 | 15° C | 47% | 0 hPa | 0 mm | - | - | - |
| 1778087883 | 15° C | 52% | 0 hPa | 0 mm | - | - | - |
| 1778086934 | 14.44° C | 50% | 0 hPa | 0 mm | - | - | - |
| 1778083743 | 13.89° C | 48% | 0 hPa | 0 mm | - | - | - |
| 1778083203 | 13.33° C | 47% | 0 hPa | 0 mm | - | - | - |
| 1778082843 | 12.78° C | 48% | 0 hPa | 0 mm | - | - | - |
| 1778080683 | 11.67° C | 49% | 0 hPa | 0 mm | - | - | - |
| 1778076543 | 9.44° C | 58% | 0 hPa | 0 mm | - | - | - |
| 1778072943 | 7.78° C | 54% | 0 hPa | 0 mm | - | - | - |
| 1778070013 | 8.33° C | 50% | 0 hPa | 0 mm | - | - | - |
| 1778066823 | 9.44° C | 52% | 0 hPa | 0 mm | - | - | - |
| 1778065203 | 8.89° C | 49% | 0 hPa | 0 mm | - | - | - |
| 1778064843 | 8.89° C | 49% | 0 hPa | 0 mm | - | - | - |
| 1778060834 | 7.22° C | 49% | 0 hPa | 0 mm | - | - | - |
* Rain latest hour (hover to see other rain measurements)
** Current wind speed in m/s (hover to see current wind gust speed)